User: anonymous
Location: Iola
(37.9240°N, 95.4000°W)
Time: 15:56:20
(UTC-05:00)
Language:

Meteor 2-10 Rocket - Orbit

View from above orbital plane
View from above orbital plane
View from above satellite
View from above satellite

Ground track
Ground track

The orbit data is extracted from the following two-line orbital elements,

1 14453U 83109B   14108.84718846  .00000195  00000-0  73792-4 0  1212
2 14453 081.1681 188.4363 0105828 165.1674 333.8085 14.24482730583035
Epoch (UTC): 18 April 2014 20:19:57
Eccentricity: 0.0105828
inclination: 81.1681°
perigee height: 734 km
apogee height: 886 km
right ascension of ascending node: 188.4363°
argument of perigee: 165.1674°
revolutions per day: 14.24482730
mean anomaly at epoch: 333.8085°
orbit number at epoch: 58303

The dashed part of the orbit path shows where the satellite is in the earth's shadow,  

DLR